Time,TemperatureF,DewpointF,PressureIn,WindDirection,WindDirectionDegrees,WindSpeedMPH,WindSpeedGustMPH,Humidity,HourlyPrecipIn,Conditions,Clouds,dailyrainin,SoftwareType,DateUTC
2013-06-07 00:03:00,64.0,56.0,29.85,NE,46,4.0,5.0,75,0.00,,,0.00,,2013-06-07 04:03:00,
2013-06-07 00:12:00,64.0,56.0,29.85,NE,46,4.0,5.0,75,0.00,,,0.00,,2013-06-07 04:12:00,
2013-06-07 00:23:00,63.0,57.0,29.85,NE,55,0.0,5.0,80,0.00,,,0.00,,2013-06-07 04:23:00,
2013-06-07 00:33:00,62.0,56.0,29.85,ENE,57,1.0,4.0,82,0.00,,,0.00,,2013-06-07 04:33:00,
2013-06-07 00:42:00,62.0,56.0,29.85,ENE,57,1.0,4.0,82,0.00,,,0.00,,2013-06-07 04:42:00,
2013-06-07 00:53:00,62.0,57.0,29.85,ENE,58,0.0,2.0,84,0.00,,,0.00,,2013-06-07 04:53:00,
2013-06-07 01:03:00,61.0,57.0,29.86,ENE,67,3.0,6.0,86,0.00,,,0.00,,2013-06-07 05:03:00,
2013-06-07 01:12:00,61.0,57.0,29.86,ENE,67,3.0,6.0,86,0.00,,,0.00,,2013-06-07 05:12:00,
2013-06-07 01:22:00,60.0,56.0,29.86,ENE,78,5.0,7.0,86,0.00,,,0.00,,2013-06-07 05:22:00,
2013-06-07 01:32:00,60.0,56.0,29.86,East,98,0.0,7.0,87,0.00,,,0.00,,2013-06-07 05:32:00,
2013-06-07 01:42:00,60.0,56.0,29.86,East,98,0.0,7.0,87,0.00,,,0.00,,2013-06-07 05:42:00,
2013-06-07 01:52:00,60.0,56.0,29.86,East,95,0.0,0.0,87,0.00,,,0.00,,2013-06-07 05:52:00,
2013-06-07 02:02:00,59.0,55.0,29.86,East,96,0.0,0.0,87,0.00,,,0.00,,2013-06-07 06:02:00,
2013-06-07 02:12:00,59.0,55.0,29.86,East,96,0.0,0.0,87,0.00,,,0.00,,2013-06-07 06:12:00,
2013-06-07 02:22:00,59.0,55.0,29.86,East,96,0.0,0.0,88,0.00,,,0.00,,2013-06-07 06:22:00,
2013-06-07 02:32:00,59.0,56.0,29.85,East,96,0.0,0.0,89,0.00,,,0.00,,2013-06-07 06:32:00,
2013-06-07 02:42:00,59.0,56.0,29.85,East,96,0.0,0.0,89,0.00,,,0.00,,2013-06-07 06:42:00,
2013-06-07 02:52:00,59.0,56.0,29.85,East,95,0.0,0.0,89,0.00,,,0.00,,2013-06-07 06:52:00,
2013-06-07 03:02:00,58.0,55.0,29.85,East,95,0.0,3.0,89,0.00,,,0.00,,2013-06-07 07:02:00,
2013-06-07 03:12:00,58.0,55.0,29.85,East,95,0.0,3.0,89,0.00,,,0.00,,2013-06-07 07:12:00,
2013-06-07 03:22:00,58.0,55.0,29.85,East,95,0.0,0.0,90,0.00,,,0.00,,2013-06-07 07:22:00,
2013-06-07 03:32:00,58.0,55.0,29.85,East,95,0.0,0.0,90,0.00,,,0.00,,2013-06-07 07:32:00,
2013-06-07 03:42:00,58.0,55.0,29.85,East,95,0.0,0.0,90,0.00,,,0.00,,2013-06-07 07:42:00,
2013-06-07 03:52:00,58.0,55.0,29.84,East,92,1.0,3.0,91,0.00,,,0.00,,2013-06-07 07:52:00,
2013-06-07 04:02:00,57.0,54.0,29.85,East,92,0.0,0.0,91,0.00,,,0.00,,2013-06-07 08:02:00,
2013-06-07 04:12:00,57.0,54.0,29.85,East,92,0.0,0.0,91,0.00,,,0.00,,2013-06-07 08:12:00,
2013-06-07 04:22:00,57.0,54.0,29.85,East,92,0.0,0.0,91,0.00,,,0.00,,2013-06-07 08:22:00,
2013-06-07 04:32:00,57.0,55.0,29.85,East,93,0.0,0.0,92,0.00,,,0.00,,2013-06-07 08:32:00,
2013-06-07 04:43:00,57.0,55.0,29.85,East,93,0.0,0.0,92,0.00,,,0.00,,2013-06-07 08:43:00,
2013-06-07 04:52:00,57.0,55.0,29.85,East,93,0.0,0.0,92,0.00,,,0.00,,2013-06-07 08:52:00,
2013-06-07 05:02:00,57.0,55.0,29.84,East,88,0.0,2.0,92,0.00,,,0.00,,2013-06-07 09:02:00,
2013-06-07 05:12:00,57.0,55.0,29.84,East,88,0.0,2.0,92,0.00,,,0.00,,2013-06-07 09:12:00,
2013-06-07 05:22:00,57.0,55.0,29.84,East,88,0.0,0.0,93,0.00,,,0.00,,2013-06-07 09:22:00,
2013-06-07 05:32:00,57.0,55.0,29.84,East,88,0.0,0.0,93,0.00,,,0.00,,2013-06-07 09:32:00,
2013-06-07 05:43:00,57.0,55.0,29.84,East,88,0.0,0.0,93,0.00,,,0.00,,2013-06-07 09:43:00,
2013-06-07 05:53:00,57.0,55.0,29.85,East,88,0.0,0.0,93,0.00,,,0.00,,2013-06-07 09:53:00,
2013-06-07 06:03:00,57.0,55.0,29.85,East,88,0.0,1.0,92,0.00,,,0.00,,2013-06-07 10:03:00,
2013-06-07 06:13:00,57.0,55.0,29.85,East,88,0.0,1.0,92,0.00,,,0.00,,2013-06-07 10:13:00,
2013-06-07 06:23:00,57.0,55.0,29.85,East,88,0.0,0.0,92,0.00,,,0.00,,2013-06-07 10:23:00,
2013-06-07 06:33:00,56.0,54.0,29.85,East,88,0.0,0.0,92,0.00,,,0.00,,2013-06-07 10:33:00,
2013-06-07 06:42:00,56.0,54.0,29.85,East,88,0.0,0.0,92,0.00,,,0.00,,2013-06-07 10:42:00,
2013-06-07 06:53:00,56.0,54.0,29.85,East,88,0.0,0.0,92,0.00,,,0.00,,2013-06-07 10:53:00,
2013-06-07 07:02:00,56.0,54.0,29.86,East,88,0.0,0.0,92,0.00,,,0.00,,2013-06-07 11:02:00,
2013-06-07 07:12:00,56.0,54.0,29.86,East,88,0.0,0.0,92,0.00,,,0.00,,2013-06-07 11:12:00,
2013-06-07 07:22:00,56.0,53.0,29.86,East,88,0.0,0.0,91,0.00,,,0.00,,2013-06-07 11:22:00,
2013-06-07 07:32:00,57.0,54.0,29.86,East,88,0.0,0.0,91,0.00,,,0.00,,2013-06-07 11:32:00,
2013-06-07 07:42:00,57.0,54.0,29.86,East,88,0.0,0.0,91,0.00,,,0.00,,2013-06-07 11:42:00,
2013-06-07 07:52:00,57.0,54.0,29.86,East,88,0.0,0.0,91,0.00,,,0.00,,2013-06-07 11:52:00,
2013-06-07 08:02:00,57.0,54.0,29.86,East,88,0.0,4.0,89,0.00,,,0.00,,2013-06-07 12:02:00,
2013-06-07 08:12:00,57.0,54.0,29.86,East,88,0.0,4.0,89,0.00,,,0.00,,2013-06-07 12:12:00,
2013-06-07 08:22:00,57.0,54.0,29.86,East,88,0.0,5.0,89,0.00,,,0.00,,2013-06-07 12:22:00,
2013-06-07 08:32:00,58.0,54.0,29.87,ENE,69,2.0,7.0,87,0.00,,,0.00,,2013-06-07 12:32:00,
2013-06-07 08:42:00,58.0,54.0,29.87,ENE,69,2.0,7.0,87,0.00,,,0.00,,2013-06-07 12:42:00,
2013-06-07 08:52:00,58.0,54.0,29.88,ENE,58,0.0,7.0,85,0.00,,,0.00,,2013-06-07 12:52:00,
2013-06-07 09:02:00,59.0,54.0,29.87,NE,48,3.0,10.0,84,0.00,,,0.00,,2013-06-07 13:02:00,
2013-06-07 09:13:00,59.0,54.0,29.87,NE,48,3.0,10.0,84,0.00,,,0.00,,2013-06-07 13:13:00,
2013-06-07 09:22:00,59.0,54.0,29.87,NE,48,3.0,10.0,84,0.00,,,0.00,,2013-06-07 13:22:00,
2013-06-07 09:32:00,60.0,54.0,29.88,NE,53,0.0,6.0,81,0.00,,,0.00,,2013-06-07 13:32:00,
2013-06-07 09:42:00,60.0,54.0,29.88,NE,53,0.0,6.0,81,0.00,,,0.00,,2013-06-07 13:42:00,
2013-06-07 09:52:00,61.0,54.0,29.88,NE,34,5.0,10.0,78,0.00,,,0.00,,2013-06-07 13:52:00,
2013-06-07 10:02:00,62.0,55.0,29.87,NE,47,3.0,11.0,77,0.00,,,0.00,,2013-06-07 14:02:00,
2013-06-07 10:13:00,62.0,55.0,29.87,NE,47,3.0,11.0,77,0.00,,,0.00,,2013-06-07 14:13:00,
2013-06-07 10:23:00,62.0,55.0,29.88,NE,37,5.0,9.0,77,0.00,,,0.00,,2013-06-07 14:23:00,
2013-06-07 10:33:00,62.0,55.0,29.88,NE,51,1.0,9.0,77,0.00,,,0.00,,2013-06-07 14:33:00,
2013-06-07 10:42:00,62.0,55.0,29.88,NE,51,1.0,9.0,77,0.00,,,0.00,,2013-06-07 14:42:00,
2013-06-07 10:52:00,64.0,56.0,29.87,NNE,29,4.0,11.0,75,0.00,,,0.00,,2013-06-07 14:52:00,
2013-06-07 11:02:00,64.0,55.0,29.87,ENE,58,4.0,11.0,73,0.00,,,0.00,,2013-06-07 15:02:00,
2013-06-07 11:12:00,64.0,55.0,29.87,ENE,58,4.0,11.0,73,0.00,,,0.00,,2013-06-07 15:12:00,
2013-06-07 11:23:00,64.0,56.0,29.87,NE,44,4.0,9.0,75,0.00,,,0.00,,2013-06-07 15:23:00,
2013-06-07 11:33:00,66.0,57.0,29.87,North,360,2.0,13.0,72,0.00,,,0.00,,2013-06-07 15:33:00,
2013-06-07 11:43:00,66.0,57.0,29.87,North,360,2.0,13.0,72,0.00,,,0.00,,2013-06-07 15:43:00,
2013-06-07 11:53:00,65.0,56.0,29.87,North,11,5.0,14.0,72,0.00,,,0.00,,2013-06-07 15:53:00,
2013-06-07 12:03:00,66.0,57.0,29.87,NNE,13,2.0,14.0,73,0.00,,,0.00,,2013-06-07 16:03:00,
2013-06-07 12:13:00,66.0,57.0,29.87,NNE,13,2.0,14.0,73,0.00,,,0.00,,2013-06-07 16:13:00,
2013-06-07 12:22:00,67.0,57.0,29.87,North,5,8.0,14.0,71,0.00,,,0.00,,2013-06-07 16:22:00,
2013-06-07 12:33:00,67.0,56.0,29.86,NE,46,6.0,14.0,68,0.00,,,0.00,,2013-06-07 16:33:00,
2013-06-07 12:43:00,67.0,56.0,29.86,NE,46,6.0,14.0,68,0.00,,,0.00,,2013-06-07 16:43:00,
2013-06-07 12:53:00,68.0,57.0,29.86,NNE,25,7.0,11.0,69,0.00,,,0.00,,2013-06-07 16:53:00,
2013-06-07 13:03:00,68.0,57.0,29.86,ENE,59,3.0,11.0,69,0.00,,,0.00,,2013-06-07 17:03:00,
2013-06-07 13:13:00,68.0,57.0,29.86,ENE,59,3.0,11.0,69,0.00,,,0.00,,2013-06-07 17:13:00,
2013-06-07 13:23:00,69.0,57.0,29.86,NNE,13,9.0,13.0,65,0.00,,,0.00,,2013-06-07 17:23:00,
2013-06-07 13:32:00,69.0,57.0,29.86,NNE,29,4.0,12.0,66,0.00,,,0.00,,2013-06-07 17:32:00,
2013-06-07 13:43:00,69.0,57.0,29.86,NNE,29,4.0,12.0,66,0.00,,,0.00,,2013-06-07 17:43:00,
2013-06-07 13:52:00,69.0,57.0,29.85,NNE,30,4.0,9.0,65,0.00,,,0.00,,2013-06-07 17:52:00,
2013-06-07 14:08:00,70.0,57.0,29.85,ENE,61,4.0,14.0,64,0.00,,,0.00,,2013-06-07 18:08:00,
2013-06-07 14:20:00,70.0,57.0,29.85,ENE,61,4.0,14.0,64,0.00,,,0.00,,2013-06-07 18:20:00,
2013-06-07 14:26:00,70.0,57.0,29.85,ENE,61,4.0,14.0,64,0.00,,,0.00,,2013-06-07 18:26:00,
2013-06-07 14:36:00,72.0,57.0,29.85,NE,55,5.0,11.0,60,0.00,,,0.00,,2013-06-07 18:36:00,
2013-06-07 14:45:00,72.0,57.0,29.85,NE,55,5.0,11.0,60,0.00,,,0.00,,2013-06-07 18:45:00,
2013-06-07 15:01:00,72.0,57.0,29.84,NNE,25,5.0,12.0,59,0.00,,,0.00,,2013-06-07 19:01:00,
2013-06-07 15:08:00,71.0,57.0,29.84,NE,54,3.0,9.0,61,0.00,,,0.00,,2013-06-07 19:08:00,
2013-06-07 15:15:00,71.0,57.0,29.84,NE,54,3.0,9.0,61,0.00,,,0.00,,2013-06-07 19:15:00,
2013-06-07 15:29:00,71.0,56.0,29.83,North,9,6.0,11.0,60,0.00,,,0.00,,2013-06-07 19:29:00,
2013-06-07 15:37:00,72.0,57.0,29.83,NNE,30,10.0,12.0,59,0.00,,,0.00,,2013-06-07 19:37:00,
2013-06-07 15:49:00,72.0,57.0,29.83,NNE,30,10.0,12.0,59,0.00,,,0.00,,2013-06-07 19:49:00,
2013-06-07 15:59:00,73.0,58.0,29.84,NW,317,2.0,12.0,59,0.00,,,0.00,,2013-06-07 19:59:00,
2013-06-07 16:07:00,73.0,57.0,29.83,NE,41,2.0,10.0,58,0.00,,,0.00,,2013-06-07 20:07:00,
2013-06-07 16:16:00,73.0,57.0,29.83,NE,41,2.0,10.0,58,0.00,,,0.00,,2013-06-07 20:16:00,
2013-06-07 16:27:00,73.0,57.0,29.83,NE,41,2.0,10.0,58,0.00,,,0.00,,2013-06-07 20:27:00,
2013-06-07 16:38:00,73.0,57.0,29.83,NE,41,2.0,10.0,58,0.00,,,0.00,,2013-06-07 20:38:00,
2013-06-07 16:59:00,72.0,56.0,29.83,NNW,335,2.0,7.0,58,0.00,,,0.00,,2013-06-07 20:59:00,
2013-06-07 17:07:00,72.0,57.0,29.83,NNW,327,5.0,12.0,59,0.00,,,0.00,,2013-06-07 21:07:00,
2013-06-07 17:20:00,72.0,57.0,29.83,NNW,327,5.0,12.0,59,0.00,,,0.00,,2013-06-07 21:20:00,
2013-06-07 17:29:00,72.0,56.0,29.83,NNE,19,6.0,12.0,58,0.00,,,0.00,,2013-06-07 21:29:00,
2013-06-07 17:39:00,73.0,58.0,29.83,NNE,24,6.0,10.0,59,0.00,,,0.00,,2013-06-07 21:39:00,
2013-06-07 17:45:00,73.0,58.0,29.83,NNE,24,6.0,10.0,59,0.00,,,0.00,,2013-06-07 21:45:00,
2013-06-07 18:02:00,73.0,58.0,29.83,NNE,24,6.0,10.0,59,0.00,,,0.00,,2013-06-07 22:02:00,
2013-06-07 18:08:00,72.0,56.0,29.83,NNE,31,4.0,9.0,57,0.00,,,0.00,,2013-06-07 22:08:00,
2013-06-07 18:22:00,72.0,56.0,29.83,NNE,31,4.0,9.0,57,0.00,,,0.00,,2013-06-07 22:22:00,
2013-06-07 18:29:00,72.0,57.0,29.83,North,360,6.0,9.0,59,0.00,,,0.00,,2013-06-07 22:29:00,
2013-06-07 18:39:00,71.0,55.0,29.83,NNE,24,6.0,11.0,57,0.00,,,0.00,,2013-06-07 22:39:00,
2013-06-07 18:47:00,71.0,55.0,29.83,NNE,24,6.0,11.0,57,0.00,,,0.00,,2013-06-07 22:47:00,
2013-06-07 19:00:00,71.0,56.0,29.83,North,10,4.0,11.0,59,0.00,,,0.00,,2013-06-07 23:00:00,
2013-06-07 19:09:00,71.0,56.0,29.83,NNE,23,6.0,11.0,60,0.00,,,0.00,,2013-06-07 23:09:00,
2013-06-07 19:19:00,71.0,56.0,29.83,NNE,23,6.0,11.0,60,0.00,,,0.00,,2013-06-07 23:19:00,
2013-06-07 19:31:00,71.0,56.0,29.83,NE,34,3.0,10.0,59,0.00,,,0.00,,2013-06-07 23:31:00,
2013-06-07 19:37:00,72.0,56.0,29.83,NNE,17,6.0,11.0,58,0.00,,,0.00,,2013-06-07 23:37:00,
2013-06-07 19:50:00,72.0,56.0,29.83,NNE,17,6.0,11.0,58,0.00,,,0.00,,2013-06-07 23:50:00,
2013-06-07 20:04:00,71.0,56.0,29.83,NE,50,5.0,10.0,59,0.00,,,0.00,,2013-06-08 00:04:00,
2013-06-07 20:12:00,70.0,55.0,29.84,NE,42,4.0,7.0,60,0.00,,,0.00,,2013-06-08 00:12:00,
2013-06-07 20:18:00,69.0,55.0,29.85,NE,49,2.0,6.0,62,0.00,,,0.00,,2013-06-08 00:18:00,
2013-06-07 20:29:00,69.0,55.0,29.85,NE,49,2.0,6.0,62,0.00,,,0.00,,2013-06-08 00:29:00,
2013-06-07 20:34:00,69.0,55.0,29.85,NE,49,2.0,6.0,62,0.00,,,0.00,,2013-06-08 00:34:00,
2013-06-07 20:45:00,69.0,55.0,29.85,NE,49,2.0,6.0,62,0.00,,,0.00,,2013-06-08 00:45:00,
2013-06-07 21:01:00,69.0,56.0,29.86,NE,40,0.0,8.0,63,0.00,,,0.00,,2013-06-08 01:01:00,
2013-06-07 21:07:00,68.0,55.0,29.86,NE,40,1.0,3.0,63,0.00,,,0.00,,2013-06-08 01:07:00,
2013-06-07 21:29:00,67.0,55.0,29.86,NE,40,0.0,4.0,66,0.00,,,0.00,,2013-06-08 01:29:00,
2013-06-07 21:38:00,66.0,55.0,29.86,NE,50,2.0,5.0,68,0.00,,,0.00,,2013-06-08 01:38:00,
2013-06-07 21:45:00,66.0,55.0,29.86,NE,50,2.0,5.0,68,0.00,,,0.00,,2013-06-08 01:45:00,
2013-06-07 22:02:00,65.0,55.0,29.87,ENE,58,3.0,10.0,69,0.00,,,0.00,,2013-06-08 02:02:00,
2013-06-07 22:15:00,64.0,54.0,29.88,ENE,67,2.0,7.0,71,0.00,,,0.00,,2013-06-08 02:15:00,
2013-06-07 22:29:00,64.0,55.0,29.88,NE,55,3.0,7.0,72,0.00,,,0.00,,2013-06-08 02:29:00,
2013-06-07 22:47:00,64.0,55.0,29.88,NE,55,3.0,7.0,72,0.00,,,0.00,,2013-06-08 02:47:00,
2013-06-07 23:27:00,61.0,53.0,29.90,ENE,63,4.0,7.0,76,0.00,,,0.00,,2013-06-08 03:27:00,
2013-06-07 23:52:00,61.0,53.0,29.90,ENE,72,0.0,4.0,76,0.00,,,0.00,,2013-06-08 03:52:00,